Location: Unspecified
(0.0000°N, 0.0000°E)
Time: 17:04:03
(UTC+00:00)

Vanguard 3 - Pass Details

Date: 11 December 2017
Orbit: 508 x 3264 km, 33.3° (Epoch: 23 June)

Event Time Altitude Azimuth Distance (km) Brightness Sun altitude
Rises 08:16:47 0° 231° (SW) 6,176 11.4 32.6°
Reaches altitude 10° 08:21:35 10° 228° (SW) 4,734 11.0 33.7°
Maximum altitude 08:33:33 68° 147° (SSE) 1,460 9.5 36.3°
Drops below altitude 10° 08:40:02 10° 65° (ENE) 2,675 10.3 37.7°
Sets 08:42:04 0° 62° (ENE) 3,388 10.7 38.2°
